K5PCJ Weather Reports


Display with metric or nautical units.
time (UTC)temp
F
wind
direction
speed
MPH
gust
MPH
rain 1hr
in
rain 24hr
in
rain mn
in
humidity
%
barometer
mb
20260506120116 72 0 0.0 0.0 0.00 0.00 0.00 95 1010.1
20260506115548 72 0 0.0 0.0 0.00 0.00 0.00 94 1010.1
20260506115043 72 0 0.0 0.0 0.00 0.00 0.00 94 1009.9
20260506114551 72 0 0.0 0.0 0.00 0.00 0.00 94 1009.9
20260506114043 72 0 0.0 0.0 0.00 0.00 0.00 94 1009.8
20260506113548 72 0 0.0 0.0 0.00 0.00 0.00 94 1009.8
20260506113056 72 0 0.0 0.0 0.00 0.00 0.00 94 1009.6
20260506112545 72 0 0.0 0.0 0.00 0.00 0.00 94 1009.4
20260506112047 72 0 0.0 0.0 0.00 0.00 0.00 94 1009.3
20260506111546 72 0 0.0 0.0 0.00 0.00 0.00 94 1009.2
20260506111044 72 0 0.0 0.0 0.00 0.00 0.00 94 1009.2
20260506110548 72 0 0.0 0.0 0.00 0.00 0.00 94 1009.2
20260506110051 72 0 0.0 0.0 0.00 0.00 0.00 94 1009.2
20260506105549 72 0 0.0 0.0 0.00 0.00 0.00 94 1009.2
20260506105043 73 0 0.0 0.0 0.00 0.00 0.00 94 1009.3
20260506104548 73 0 0.0 0.0 0.00 0.00 0.00 93 1009.3
20260506104047 73 0 0.0 0.0 0.00 0.00 0.00 93 1009.1
20260506103543 73 0 0.0 0.0 0.00 0.00 0.00 93 1009.0
20260506103052 73 0 0.0 0.0 0.00 0.00 0.00 93 1009.1
20260506102547 73 0 0.0 0.0 0.00 0.00 0.00 93 1009.2
20260506102046 73 0 0.0 0.0 0.00 0.00 0.00 93 1009.2
20260506101550 73 0 0.0 0.0 0.00 0.00 0.00 93 1009.2
20260506101048 73 0 0.0 0.0 0.00 0.00 0.00 93 1009.1
20260506100555 74 0 0.0 0.0 0.00 0.00 0.00 93 1009.0
20260506100054 74 0 0.0 1.0 0.00 0.00 0.00 93 1008.9
20260506095548 74 0 0.0 1.0 0.00 0.00 0.00 93 1008.7
20260506095046 74 0 0.0 1.0 0.00 0.00 0.00 92 1008.8
20260506094549 74 0 0.0 1.0 0.00 0.00 0.00 93 1008.7
20260506094043 74 0 0.0 2.0 0.00 0.00 0.00 93 1008.7
20260506093547 74 0 0.0 2.0 0.00 0.00 0.00 93 1008.7
20260506093054 74 91 0.0 2.0 0.00 0.00 0.00 92 1008.8
20260506092544 74 0 0.0 1.0 0.00 0.00 0.00 92 1008.8
20260506092149 74 0 0.0 1.0 0.00 0.00 0.00 92 1008.8
20260506092051 74 0 0.0 1.0 0.00 0.00 0.00 92 1008.8
20260506091558 74 0 0.0 1.0 0.00 0.00 0.00 92 1008.9
20260506091043 74 354 0.0 1.0 0.00 0.00 0.00 92 1008.8
20260506090543 74 34 0.0 1.0 0.00 0.00 0.00 92 1008.8
20260506090050 74 0 0.0 1.0 0.00 0.00 0.00 92 1008.8
20260506085541 74 349 0.0 1.0 0.00 0.00 0.00 92 1008.8
20260506085045 74 0 0.0 2.0 0.00 0.00 0.00 91 1008.8
20260506084552 75 0 0.0 2.0 0.00 0.00 0.00 91 1008.8
20260506084044 75 0 0.0 2.0 0.00 0.00 0.00 91 1008.8
20260506083544 75 23 0.0 2.0 0.00 0.00 0.00 91 1008.9
20260506083048 75 6 0.0 2.0 0.00 0.00 0.00 91 1009.0
20260506082545 75 18 0.0 2.0 0.00 0.00 0.00 91 1009.1
20260506082044 75 30 0.0 1.0 0.00 0.00 0.00 91 1009.1
20260506081554 75 34 0.0 1.0 0.00 0.00 0.00 91 1009.2
20260506081044 75 34 0.0 1.0 0.00 0.00 0.00 91 1009.3
20260506080547 75 34 0.0 1.0 0.00 0.00 0.00 91 1009.4
20260506073055 75 35 0.0 1.0 0.00 0.00 0.00 91 1009.7
20260506072543 75 0 0.0 1.0 0.00 0.00 0.00 91 1009.7
20260506072044 75 0 0.0 1.0 0.00 0.00 0.00 91 1009.7
20260506071553 75 0 0.0 1.0 0.00 0.00 0.00 91 1009.7
20260506071045 75 0 0.0 1.0 0.00 0.00 0.00 91 1009.8
20260506070544 75 35 0.0 1.0 0.00 0.00 0.00 91 1009.7
20260506070109 75 0 0.0 1.0 0.00 0.00 0.00 91 1009.9
20260506062046 75 0 0.0 0.0 0.00 0.00 0.00 91 1009.9
20260506061546 75 0 0.0 0.0 0.00 0.00 0.00 91 1010.0
20260506061046 75 0 0.0 0.0 0.00 0.00 0.00 91 1010.0
20260506060546 75 0 0.0 0.0 0.00 0.00 0.00 91 1009.8
20260506051043 76 32 0.0 2.0 0.00 0.00 0.00 90 1010.0
20260506050544 76 32 0.0 2.0 0.00 0.00 0.00 90 1010.0
20260506045049 76 8 0.0 2.0 0.00 0.00 0.00 89 1010.0
20260506044555 76 0 0.0 2.0 0.00 0.00 0.00 89 1010.1
20260506044043 76 46 0.0 2.0 0.00 0.00 0.00 89 1010.1
20260506043544 76 23 0.0 2.0 0.00 0.00 0.00 89 1009.9
20260506043051 76 8 0.0 2.0 0.00 0.00 0.00 89 1009.9
20260506042545 76 356 0.0 2.0 0.00 0.00 0.00 88 1009.9
20260506042148 76 0 0.0 2.0 0.00 0.00 0.00 88 1009.9
20260506042054 76 0 0.0 2.0 0.00 0.00 0.00 88 1009.9
20260506041556 76 0 0.0 1.0 0.00 0.00 0.00 88 1009.9
20260506041049 76 0 0.0 1.0 0.00 0.00 0.00 88 1009.9
20260506040544 76 48 0.0 1.0 0.00 0.00 0.00 88 1009.8
20260506040051 76 49 0.0 1.0 0.00 0.00 0.00 88 1009.9
20260506035548 76 0 0.0 0.0 0.00 0.00 0.00 88 1009.8
20260506035044 77 0 0.0 0.0 0.00 0.00 0.00 88 1009.8
20260506034549 77 0 0.0 2.0 0.00 0.00 0.00 88 1009.7
20260506034046 77 0 0.0 2.0 0.00 0.00 0.00 88 1009.8
20260506033546 77 0 0.0 2.0 0.00 0.00 0.00 88 1009.7
20260506033052 77 26 0.0 3.0 0.00 0.00 0.00 88 1009.7
20260506032554 77 32 1.0 3.0 0.00 0.00 0.00 88 1009.6
20260506032044 77 283 1.0 3.0 0.00 0.00 0.00 88 1009.6
20260506031558 77 10 0.0 2.0 0.00 0.00 0.00 88 1009.4
20260506031044 77 46 0.0 2.0 0.00 0.00 0.00 88 1009.4
20260506030543 77 353 1.0 2.0 0.00 0.00 0.00 88 1009.3
20260506030109 77 18 0.0 2.0 0.00 0.00 0.00 88 1009.2
20260506025543 77 32 0.0 2.0 0.00 0.00 0.00 88 1009.2
20260506025045 77 21 0.0 2.0 0.00 0.00 0.00 88 1009.1
20260506024548 77 23 0.0 2.0 0.00 0.00 0.00 87 1009.0
20260506024047 77 0 0.0 2.0 0.00 0.00 0.00 87 1009.0
20260506023546 77 0 0.0 3.0 0.00 0.00 0.00 87 1008.9
20260506023052 77 25 0.0 3.0 0.00 0.00 0.00 87 1008.9
20260506022548 77 25 0.0 2.0 0.00 0.00 0.00 87 1008.8
20260506022046 77 0 0.0 2.0 0.00 0.00 0.00 87 1008.6
20260506021551 77 41 0.0 2.0 0.00 0.00 0.00 87 1008.5
20260506021044 77 32 0.0 2.0 0.00 0.00 0.00 87 1008.4
20260506020543 77 32 0.0 2.0 0.00 0.00 0.00 87 1008.4
20260506020048 77 10 0.0 2.0 0.00 0.00 0.00 87 1008.3
20260506015547 77 0 0.0 2.0 0.00 0.00 0.00 87 1008.2
20260506015046 77 1 0.0 2.0 0.00 0.00 0.00 87 1008.3
20260506014600 77 354 0.0 2.0 0.00 0.00 0.00 87 1008.2
20260506014045 77 37 0.0 2.0 0.00 0.00 0.00 87 1008.1
20260506013554 77 0 0.0 1.0 0.00 0.00 0.00 87 1008.1
20260506013109 78 0 0.0 1.0 0.00 0.00 0.00 86 1007.9
20260506012545 78 36 0.0 1.0 0.00 0.00 0.00 86 1007.9
20260506012044 78 0 0.0 2.0 0.00 0.00 0.00 86 1007.9
20260506011555 78 0 0.0 2.0 0.00 0.00 0.00 86 1007.7
20260506011045 78 39 1.0 3.0 0.00 0.00 0.00 86 1007.7
20260506010546 78 0 0.0 3.0 0.00 0.00 0.00 85 1007.7
20260506010054 78 345 1.0 3.0 0.00 0.00 0.00 85 1007.8
20260506005548 78 13 0.0 2.0 0.00 0.00 0.00 85 1007.8
20260506005044 78 0 0.0 1.0 0.00 0.00 0.00 86 1007.7
20260506004622 78 34 0.0 2.0 0.00 0.00 0.00 85 1007.7
20260506004043 78 34 0.0 2.0 0.00 0.00 0.00 85 1007.6
20260506003552 79 5 0.0 3.0 0.00 0.00 0.00 86 1007.6
20260506003049 79 0 0.0 3.0 0.00 0.00 0.00 86 1007.5
20260506002544 79 349 0.0 3.0 0.00 0.00 0.00 85 1007.4
20260506002049 79 30 0.0 2.0 0.00 0.00 0.00 85 1007.3
20260506001549 79 19 0.0 2.0 0.00 0.00 0.00 85 1007.2
20260506001044 79 0 0.0 2.0 0.00 0.00 0.00 85 1007.4
20260506000544 79 0 0.0 2.0 0.00 0.00 0.00 85 1007.5
20260506000050 79 11 0.0 2.0 0.00 0.00 0.00 85 1007.5
20260505235544 79 5 0.0 2.0 0.00 0.00 0.00 85 1007.3
20260505235041 79 0 1.0 2.0 0.00 0.00 0.00 85 1007.3
20260505234609 79 354 0.0 2.0 0.00 0.00 0.00 85 1007.3
20260505234044 80 23 0.0 3.0 0.00 0.00 0.00 85 1007.3
20260505233543 80 6 1.0 3.0 0.00 0.00 0.00 85 1007.3
20260505233051 80 0 0.0 3.0 0.00 0.00 0.00 85 1007.5
20260505232545 80 356 0.0 3.0 0.00 0.00 0.00 84 1007.5
20260505232048 80 40 0.0 2.0 0.00 0.00 0.00 84 1007.4
20260505231553 80 342 0.0 2.0 0.00 0.00 0.00 84 1007.5
20260505231044 81 81 1.0 2.0 0.00 0.00 0.00 84 1007.5
20260505230544 81 27 0.0 2.0 0.00 0.00 0.00 83 1007.4
20260505230052 81 8 1.0 5.0 0.00 0.00 0.00 83 1007.3
20260505225544 81 0 1.0 5.0 0.00 0.00 0.00 82 1007.2
20260505225045 82 312 2.0 5.0 0.00 0.00 0.00 82 1007.1
20260505224552 82 9 1.0 3.0 0.00 0.00 0.00 81 1007.1
20260505224043 82 53 1.0 6.0 0.00 0.00 0.00 81 1007.3
20260505223543 82 330 1.0 6.0 0.00 0.00 0.00 81 1007.2
20260505223101 82 321 1.0 4.0 0.00 0.00 0.00 81 1007.2
20260505222543 82 349 1.0 4.0 0.00 0.00 0.00 81 1007.3
20260505222043 82 9 1.0 4.0 0.00 0.00 0.00 81 1007.3
20260505221605 82 15 1.0 5.0 0.00 0.00 0.00 80 1007.3
20260505221043 83 345 1.0 5.0 0.00 0.00 0.00 79 1007.3
20260505220547 83 345 1.0 5.0 0.00 0.00 0.00 79 1007.4
20260505220119 83 7 1.0 3.0 0.00 0.00 0.00 79 1007.5
20260505215544 83 0 1.0 3.0 0.00 0.00 0.00 80 1007.6
20260505215044 82 56 1.0 3.0 0.00 0.00 0.00 80 1007.7
20260505214604 83 352 1.0 3.0 0.00 0.00 0.00 80 1007.6
20260505214045 83 356 1.0 3.0 0.00 0.00 0.00 80 1007.7
20260505213543 83 350 1.0 3.0 0.00 0.00 0.00 80 1007.8
20260505213051 83 27 1.0 3.0 0.00 0.00 0.00 80 1007.7
20260505212543 83 356 1.0 3.0 0.00 0.00 0.00 79 1007.8
20260505212044 83 336 1.0 4.0 0.00 0.00 0.00 78 1008.0
20260505211559 83 37 0.0 4.0 0.00 0.00 0.00 78 1007.9
20260505211044 83 85 0.0 2.0 0.00 0.00 0.00 79 1007.9
20260505210545 83 37 0.0 2.0 0.00 0.00 0.00 80 1008.0
20260505210051 83 13 0.0 3.0 0.00 0.00 0.00 80 1008.1
20260505205546 83 41 1.0 3.0 0.00 0.00 0.00 79 1008.1
20260505205040 83 36 1.0 4.0 0.00 0.00 0.00 78 1008.2
20260505204552 84 350 1.0 4.0 0.00 0.00 0.00 78 1008.3
20260505204044 84 332 1.0 3.0 0.00 0.00 0.00 78 1008.2
20260505203544 84 349 1.0 5.0 0.00 0.00 0.00 78 1008.3
20260505203053 84 49 1.0 5.0 0.00 0.00 0.00 78 1008.3
20260505202545 84 44 1.0 3.0 0.00 0.00 0.00 78 1008.4
20260505202044 83 58 0.0 2.0 0.00 0.00 0.00 80 1008.6
20260505201602 83 39 0.0 4.0 0.00 0.00 0.00 80 1008.7
20260505201047 83 46 1.0 6.0 0.00 0.00 0.00 79 1008.9
20260505200544 84 27 1.0 6.0 0.00 0.00 0.00 77 1008.9
20260505195546 84 47 0.0 3.0 0.00 0.00 0.00 79 1009.0
20260505195045 83 75 1.0 3.0 0.00 0.00 0.00 79 1009.0
20260505194555 83 56 0.0 3.0 0.00 0.00 0.00 81 1009.0
20260505194043 82 39 1.0 3.0 0.00 0.00 0.00 82 1009.1
20260505193543 81 342 1.0 5.0 0.00 0.00 0.00 82 1009.1
20260505193052 81 36 1.0 5.0 0.00 0.00 0.00 82 1009.3
20260505192548 81 348 2.0 5.0 0.00 0.00 0.00 82 1009.3
20260505192047 81 3 0.0 3.0 0.00 0.00 0.00 82 1009.4
20260505191556 81 0 0.0 3.0 0.00 0.00 0.00 81 1009.4
20260505191159 81 360 1.0 4.0 0.00 0.00 0.00 81 1009.5
20260505190544 82 20 1.0 4.0 0.00 0.00 0.00 81 1009.5
20260505185544 82 303 0.0 2.0 0.00 0.00 0.00 81 1009.6
20260505185044 82 25 1.0 4.0 0.00 0.00 0.00 81 1009.6
20260505184553 82 80 1.0 4.0 0.00 0.00 0.00 81 1009.6
20260505184044 82 0 1.0 6.0 0.00 0.00 0.00 81 1009.6
20260505183543 81 309 1.0 9.0 0.00 0.00 0.00 81 1009.7
20260505183053 82 37 2.0 9.0 0.00 0.00 0.00 81 1009.7
20260505182543 82 23 0.0 3.0 0.00 0.00 0.00 81 1009.7
20260505182045 81 18 0.0 4.0 0.00 0.00 0.00 81 1009.7
20260505181549 81 32 1.0 4.0 0.00 0.00 0.00 82 1009.7
20260505181046 80 8 1.0 2.0 0.00 0.00 0.00 82 1009.7
20260505180542 80 25 1.0 4.0 0.00 0.00 0.00 82 1009.7
20260505180050 80 0 0.0 4.0 0.00 0.00 0.00 82 1009.7
20260505175540 80 54 0.0 4.0 0.00 0.00 0.00 82 1009.8
20260505175044 80 81 1.0 6.0 0.00 0.00 0.00 82 1009.8
20260505174552 80 34 1.0 6.0 0.00 0.00 0.00 82 1009.8
20260505174044 80 53 1.0 6.0 0.00 0.00 0.00 83 1009.9
20260505173547 80 355 1.0 3.0 0.00 0.00 0.00 83 1010.0
20260505173050 80 354 1.0 3.0 0.00 0.00 0.00 83 1010.2
20260505172543 79 0 0.0 0.0 0.00 0.00 0.00 85 1010.2
20260505172041 79 0 0.0 0.0 0.00 0.00 0.00 85 1010.2
20260505171546 79 0 0.0 0.0 0.00 0.00 0.00 85 1010.3
20260505171048 78 0 0.0 0.0 0.00 0.00 0.00 85 1010.2
20260505170541 78 0 0.0 1.0 0.00 0.00 0.00 86 1010.2
20260505170046 78 0 0.0 2.0 0.00 0.00 0.00 86 1010.2
20260505165540 78 25 0.0 2.0 0.00 0.00 0.00 86 1010.2
20260505165048 78 28 0.0 1.0 0.00 0.00 0.00 85 1010.4
20260505164549 78 53 0.0 2.0 0.00 0.00 0.00 85 1010.3
20260505164040 78 0 0.0 2.0 0.00 0.00 0.00 85 1010.3
20260505163540 78 30 1.0 2.0 0.00 0.00 0.00 85 1010.3
20260505163051 78 38 0.0 2.0 0.00 0.00 0.00 85 1010.2
20260505162543 78 56 0.0 4.0 0.00 0.00 0.00 86 1010.1
20260505162041 77 9 0.0 4.0 0.00 0.00 0.00 86 1010.1
20260505161544 77 8 1.0 4.0 0.00 0.00 0.00 85 1010.2
20260505161041 77 0 1.0 2.0 0.00 0.00 0.00 85 1010.2
20260505160542 77 39 0.0 2.0 0.00 0.00 0.00 85 1010.3
20260505160105 78 332 1.0 2.0 0.00 0.00 0.00 85 1010.3
20260505153052 78 67 0.0 2.0 0.00 0.00 0.00 85 1010.1
20260505152540 77 330 0.0 2.0 0.00 0.00 0.00 85 1010.0
20260505152045 77 30 0.0 2.0 0.00 0.00 0.00 85 1010.1
20260505151549 77 32 0.0 2.0 0.00 0.00 0.00 85 1010.1
20260505151046 77 0 0.0 4.0 0.00 0.00 0.00 85 1010.1
20260505150541 77 44 0.0 4.0 0.00 0.00 0.00 85 1010.2
20260505140544 75 35 1.0 3.0 0.00 0.00 0.00 86 1009.9
20260505124553 73 359 1.0 2.0 0.00 0.00 0.00 87 1009.6
20260505124040 73 351 0.0 2.0 0.00 0.00 0.00 87 1009.6
20260505123543 73 16 1.0 4.0 0.00 0.00 0.00 87 1009.5
20260505123049 73 341 1.0 4.0 0.00 0.00 0.00 87 1009.7
20260505122543 73 0 0.0 2.0 0.00 0.00 0.00 87 1009.6
20260505122043 73 0 0.0 3.0 0.00 0.00 0.00 87 1009.5
20260505121555 73 9 1.0 3.0 0.00 0.00 0.00 87 1009.3
20260505121045 73 349 1.0 2.0 0.00 0.00 0.00 87 1009.3
20260505120544 73 309 0.0 2.0 0.00 0.00 0.00 87 1009.1